Location: Demre
(36.2444°N, 29.9850°E)
Time: 05:55:38
(UTC+00:00)

Cosmos 2369 Rocket - Pass Details

Date: 11 March 2026
Orbit: 829 x 850 km, 71.0° (Epoch: 21 April)

Event Time Altitude Azimuth Distance (km) Brightness Sun altitude
Rises 18:45:56 0° 230° (SW) 3,401 5.7 -32.8°
Reaches altitude 10° 18:48:42 10° 241° (WSW) 2,468 5.0 -33.4°
Maximum altitude 18:53:33 29° 300° (WNW) 1,516 4.0 -34.3°
Drops below altitude 10° 18:58:26 10° 360° (N) 2,471 4.9 -35.1°
Sets 19:01:13 0° 11° (N) 3,407 5.5 -35.7°
